| time (UTC) | temp F | wind direction | speed knots | gust knots | rain 1hr in | rain 24hr in | rain mn in | humidity % | barometer mb |
| 20260906103104 | 61 | 148 | 0.0 | 0.0 | 0.00 | 0.00 | 0.00 | 89 | 1015.5 |
| 20260906101538 | 61 | 148 | 0.0 | 0.0 | 0.00 | 0.00 | 0.00 | 89 | 1015.3 |
| 20260906100024 | 62 | 148 | 0.0 | 0.0 | 0.00 | 0.00 | 0.00 | 89 | 1015.2 |
| 20260906094557 | 62 | 148 | 0.0 | 0.0 | 0.00 | 0.00 | 0.00 | 89 | 1015.0 |
| 20260906093024 | 62 | 148 | 0.0 | 0.0 | 0.00 | 0.00 | 0.00 | 88 | 1015.1 |
| 20260906091600 | 63 | 148 | 0.0 | 0.0 | 0.00 | 0.00 | 0.00 | 88 | 1014.9 |
| 20260906090037 | 63 | 148 | 0.0 | 0.0 | 0.00 | 0.00 | 0.00 | 88 | 1015.0 |
| 20260906084518 | 64 | 148 | 0.0 | 0.0 | 0.00 | 0.00 | 0.00 | 88 | 1015.0 |
| 20260906083057 | 64 | 148 | 0.0 | 0.0 | 0.00 | 0.00 | 0.00 | 88 | 1014.8 |
| 20260906081530 | 64 | 148 | 0.0 | 0.9 | 0.00 | 0.00 | 0.00 | 87 | 1014.8 |
| 20260906080008 | 65 | 119 | 0.0 | 0.0 | 0.00 | 0.00 | 0.00 | 87 | 1014.7 |
| 20260906074544 | 65 | 118 | 0.0 | 0.0 | 0.00 | 0.00 | 0.00 | 86 | 1014.5 |
| 20260906073018 | 66 | 118 | 0.0 | 0.0 | 0.00 | 0.00 | 0.00 | 86 | 1014.3 |
| 20260906071555 | 67 | 118 | 0.0 | 0.0 | 0.00 | 0.00 | 0.00 | 85 | 1014.2 |
| 20260906070032 | 67 | 118 | 0.0 | 0.9 | 0.00 | 0.00 | 0.00 | 85 | 1014.4 |
| 20260906064512 | 67 | 62 | 0.0 | 0.0 | 0.00 | 0.00 | 0.00 | 86 | 1014.6 |
| 20260906063053 | 67 | 59 | 0.0 | 0.0 | 0.00 | 0.00 | 0.00 | 87 | 1014.7 |
| 20260906061531 | 67 | 59 | 0.0 | 0.0 | 0.00 | 0.01 | 0.00 | 87 | 1014.7 |
| 20260906060006 | 67 | 52 | 0.0 | 0.0 | 0.00 | 0.01 | 0.00 | 87 | 1014.5 |
| 20260906054539 | 67 | 54 | 0.0 | 0.0 | 0.00 | 0.01 | 0.00 | 86 | 1014.3 |
| 20260906053012 | 68 | 55 | 0.0 | 0.0 | 0.00 | 0.01 | 0.00 | 86 | 1014.0 |
| 20260906051555 | 69 | 57 | 0.0 | 0.0 | 0.00 | 0.04 | 0.00 | 86 | 1014.0 |
| 20260906050025 | 69 | 44 | 0.0 | 0.9 | 0.00 | 0.04 | 0.00 | 85 | 1014.1 |
| 20260906044558 | 70 | 42 | 0.0 | 0.9 | 0.00 | 0.04 | 0.00 | 85 | 1013.8 |
| 20260906043033 | 70 | 74 | 0.0 | 0.0 | 0.00 | 0.04 | 0.00 | 84 | 1013.7 |
| 20260906041504 | 71 | 86 | 0.0 | 0.9 | 0.00 | 0.04 | 0.00 | 85 | 1013.5 |
| 20260906040041 | 71 | 100 | 0.0 | 0.9 | 0.00 | 0.04 | 0.00 | 87 | 1013.6 |
| 20260906034521 | 72 | 138 | 0.0 | 0.9 | 0.00 | 0.04 | 0.00 | 89 | 1013.4 |
| 20260906033001 | 72 | 146 | 0.0 | 0.0 | 0.00 | 0.04 | 0.00 | 89 | 1013.5 |
| 20260906031544 | 72 | 177 | 0.0 | 0.9 | 0.00 | 0.04 | 0.00 | 89 | 1013.6 |
| 20260906030022 | 72 | 136 | 0.0 | 0.0 | 0.00 | 0.04 | 0.00 | 87 | 1013.6 |
| 20260906024601 | 72 | 132 | 0.0 | 0.0 | 0.00 | 0.04 | 0.00 | 86 | 1013.6 |
| 20260906023042 | 73 | 131 | 0.0 | 0.0 | 0.00 | 0.04 | 0.00 | 86 | 1013.4 |
| 20260906021533 | 73 | 131 | 0.0 | 0.0 | 0.00 | 0.04 | 0.00 | 85 | 1013.3 |
| 20260906020054 | 73 | 148 | 0.0 | 0.0 | 0.00 | 0.04 | 0.00 | 85 | 1013.1 |
| 20260906014521 | 73 | 150 | 0.0 | 0.0 | 0.00 | 0.04 | 0.00 | 85 | 1013.1 |
| 20260906013100 | 73 | 157 | 0.0 | 0.9 | 0.00 | 0.04 | 0.00 | 85 | 1013.0 |
| 20260906011536 | 73 | 159 | 0.0 | 0.9 | 0.00 | 0.04 | 0.00 | 85 | 1012.7 |
| 20260906010018 | 73 | 165 | 0.0 | 0.9 | 0.00 | 0.04 | 0.00 | 85 | 1012.6 |
| 20260906004554 | 73 | 175 | 0.0 | 1.7 | 0.00 | 0.04 | 0.00 | 84 | 1012.6 |
| 20260906003034 | 74 | 146 | 0.0 | 0.0 | 0.00 | 0.04 | 0.00 | 84 | 1012.4 |
| 20260906001514 | 74 | 92 | 0.0 | 0.9 | 0.00 | 0.04 | 0.00 | 84 | 1012.1 |
| 20260906000049 | 74 | 174 | 0.0 | 0.9 | 0.00 | 0.04 | 0.00 | 84 | 1012.0 |
| 20260905234526 | 75 | 122 | 0.0 | 1.7 | 0.00 | 0.04 | 0.00 | 83 | 1012.0 |
| 20260905233004 | 75 | 177 | 0.0 | 1.7 | 0.00 | 0.04 | 0.00 | 83 | 1011.8 |
| 20260905231541 | 75 | 150 | 0.0 | 0.9 | 0.00 | 0.04 | 0.00 | 83 | 1011.8 |
| 20260905230018 | 76 | 158 | 0.0 | 0.0 | 0.00 | 0.04 | 0.00 | 83 | 1011.7 |
| 20260905224559 | 76 | 18 | 0.0 | 0.0 | 0.00 | 0.04 | 0.00 | 82 | 1011.5 |
| 20260905223037 | 77 | 132 | 0.0 | 0.0 | 0.00 | 0.04 | 0.00 | 82 | 1011.3 |
| 20260905221515 | 78 | 57 | 0.0 | 0.9 | 0.00 | 0.04 | 0.00 | 80 | 1011.2 |
| 20260905220055 | 80 | 49 | 0.0 | 1.7 | 0.00 | 0.04 | 0.00 | 77 | 1011.0 |
| 20260905214537 | 82 | 198 | 0.0 | 2.6 | 0.00 | 0.04 | 0.00 | 76 | 1010.8 |
| 20260905213017 | 82 | 217 | 0.0 | 2.6 | 0.00 | 0.04 | 0.00 | 76 | 1010.7 |
| 20260905211608 | 81 | 235 | 0.0 | 1.7 | 0.00 | 0.04 | 0.00 | 76 | 1010.9 |
| 20260905210035 | 82 | 77 | 0.0 | 1.7 | 0.00 | 0.04 | 0.00 | 76 | 1010.9 |
| 20260905204517 | 82 | 148 | 0.0 | 6.1 | 0.00 | 0.04 | 0.00 | 74 | 1010.8 |
| 20260905203057 | 81 | 195 | 0.0 | 3.5 | 0.00 | 0.04 | 0.00 | 77 | 1010.9 |
| 20260905201538 | 81 | 190 | 0.0 | 3.5 | 0.00 | 0.04 | 0.00 | 75 | 1011.1 |
| 20260905200024 | 81 | 165 | 0.0 | 2.6 | 0.00 | 0.04 | 0.00 | 77 | 1011.2 |
| 20260905194559 | 80 | 182 | 0.0 | 2.6 | 0.00 | 0.04 | 0.00 | 78 | 1011.3 |
| 20260905193037 | 81 | 184 | 0.0 | 0.9 | 0.00 | 0.04 | 0.00 | 78 | 1011.3 |
| 20260905191515 | 82 | 50 | 0.0 | 1.7 | 0.00 | 0.04 | 0.00 | 78 | 1011.4 |
| 20260905190057 | 83 | 125 | 0.0 | 5.2 | 0.00 | 0.04 | 0.00 | 75 | 1011.2 |
| 20260905184538 | 83 | 169 | 0.0 | 0.9 | 0.00 | 0.04 | 0.00 | 75 | 1011.3 |
| 20260905183010 | 83 | 169 | 0.0 | 1.7 | 0.00 | 0.04 | 0.00 | 74 | 1011.3 |
| 20260905181548 | 84 | 179 | 0.0 | 1.7 | 0.00 | 0.04 | 0.00 | 72 | 1011.2 |
| 20260905180027 | 84 | 193 | 0.0 | 0.9 | 0.00 | 0.04 | 0.00 | 75 | 1011.0 |
| 20260905174559 | 84 | 157 | 0.0 | 1.7 | 0.00 | 0.04 | 0.00 | 76 | 1011.1 |
| 20260905173031 | 83 | 204 | 0.0 | 0.9 | 0.00 | 0.04 | 0.00 | 78 | 1011.2 |
| 20260905171508 | 82 | 194 | 0.0 | 1.7 | 0.00 | 0.22 | 0.00 | 79 | 1011.3 |
| 20260905170047 | 82 | 42 | 0.0 | 0.0 | 0.00 | 0.22 | 0.00 | 77 | 1011.3 |
| 20260905164520 | 81 | 169 | 0.0 | 0.0 | 0.00 | 0.22 | 0.00 | 79 | 1011.5 |
| 20260905163056 | 79 | 94 | 0.0 | 0.9 | 0.00 | 0.22 | 0.00 | 81 | 1011.4 |
| 20260905161529 | 79 | 93 | 0.0 | 0.9 | 0.00 | 0.30 | 0.00 | 83 | 1011.4 |
| 20260905160014 | 78 | 80 | 0.0 | 0.9 | 0.00 | 0.30 | 0.00 | 86 | 1011.4 |
| 20260905154537 | 77 | 80 | 0.0 | 0.9 | 0.00 | 0.30 | 0.00 | 87 | 1011.4 |
| 20260905153016 | 76 | 57 | 0.0 | 0.0 | 0.00 | 0.30 | 0.00 | 89 | 1011.3 |
| 20260905151549 | 76 | 55 | 0.0 | 0.0 | 0.00 | 0.30 | 0.00 | 92 | 1011.3 |
| 20260905150027 | 75 | 53 | 0.0 | 1.7 | 0.00 | 0.30 | 0.00 | 93 | 1011.0 |
| 20260905144509 | 74 | 109 | 0.0 | 0.0 | 0.00 | 0.30 | 0.00 | 94 | 1011.1 |
| 20260905143043 | 74 | 109 | 0.0 | 0.0 | 0.00 | 0.30 | 0.00 | 94 | 1011.1 |
| 20260905141521 | 73 | 109 | 0.0 | 0.9 | 0.00 | 0.30 | 0.00 | 94 | 1011.3 |
| 20260905140106 | 73 | 105 | 0.0 | 0.0 | 0.00 | 0.30 | 0.00 | 95 | 1011.3 |
| 20260905134537 | 73 | 105 | 0.0 | 0.0 | 0.00 | 0.30 | 0.00 | 95 | 1011.2 |
| 20260905133013 | 73 | 105 | 0.0 | 0.0 | 0.00 | 0.30 | 0.00 | 95 | 1011.1 |
| 20260905131611 | 72 | 74 | 0.0 | 0.0 | 0.00 | 0.30 | 0.00 | 95 | 1011.0 |
| 20260905130028 | 72 | 69 | 0.0 | 0.0 | 0.00 | 0.30 | 0.00 | 95 | 1011.0 |
| 20260905124512 | 71 | 67 | 0.0 | 0.0 | 0.00 | 0.30 | 0.00 | 95 | 1010.8 |
| 20260905123042 | 71 | 67 | 0.0 | 0.0 | 0.00 | 0.30 | 0.00 | 95 | 1010.8 |
| 20260905121518 | 71 | 67 | 0.0 | 0.0 | 0.00 | 0.30 | 0.30 | 95 | 1010.5 |
| 20260905120001 | 71 | 67 | 0.0 | 0.0 | 0.00 | 0.30 | 0.30 | 95 | 1010.3 |
| 20260905114549 | 71 | 65 | 0.0 | 0.0 | 0.00 | 0.30 | 0.30 | 95 | 1010.1 |
| 20260905113024 | 71 | 65 | 0.0 | 0.0 | 0.00 | 0.30 | 0.30 | 95 | 1009.9 |
| 20260905111505 | 71 | 65 | 0.0 | 0.0 | 0.00 | 0.30 | 0.30 | 94 | 1009.9 |
| 20260905110040 | 71 | 65 | 0.0 | 0.0 | 0.00 | 0.30 | 0.30 | 95 | 1009.7 |
| 20260905104522 | 71 | 62 | 0.0 | 0.0 | 0.00 | 0.30 | 0.30 | 94 | 1009.6 |